Find OneWeb SL0219

NORAD ID: 48223 Int'l Des: 2021-031 Owner: ONEWEBN Country: UK Constellation: oneweb operational
LEOCIRCULARPOLARONEWEB_TYPE

現在のビュー

3D地球を読み込み中...

About OneWeb SL0219

OneWeb SL0219 (NORAD 48223) is a oneweb constellation satellite launched Apr 25, 2021 by ONEWEBN of UK. It operates in LEO, CIRCULAR, POLAR, ONEWEB_TYPE orbit with a mass of 148.00 kg.

OneWeb SL0219について

説明を読み込み中...

次回通過

Passes for default location (London). Set your location on the main map for personalized predictions.

高度履歴

Loading altitude history...

軌道要素

1 48223U 21031P 26170.27855549 -.00000138 00000-0 -40619-3 0 9994
2 48223 87.8967 289.2792 0002172 102.9819 257.1554 13.14501244248656
Epoch: Jun 19, 2026 • Age: 9 hours

現在のステータス

高度 1216.4 km
速度 7.24 km/s
衛星直下点 -25.80°S, 144.98°E
打ち上げ日 Apr 25, 2021
運用期間 5.1 years
タイプ internet

技術仕様

分類 Payload
質量 148.00 kg
乾燥質量 140.00 kg
総質量 148.00 kg
長さ 1.30 m
直径 1.00 m
スパン 5.00 m
形状 Trapezoid+2 pan
製造者 ONEWUS
バスタイプ ARROW
フェーズステータス In Orbit
所有者/国 ONEWEBN/UK

Most Searched